When you browse on this site, cookies collect data to enhance your experience and personalize the content and advertising you see.
Visit our Privacy Policy to learn more. By continuing to use the site, you agree to this use of cookies and data.
EN

Hourly Weather Gabrovo

Today, 11 July, Saturday

Time Temperature Precipitation Wind Pressure Humidity
00:00 +15°C° 0 mm 1 mps 703 mmHg 82%
01:00 +15°C° 0 mm 1 mps 703 mmHg 84%
02:00 +15°C° 0 mm 1 mps 703 mmHg 87%
03:00 +14°C° 0 mm 1 mps 703 mmHg 87%
04:00 +14°C° 0 mm 1 mps 703 mmHg 88%
05:00 +14°C° 0 mm 1 mps 703 mmHg 88%
06:00 +16°C° 0 mm 1 mps 703 mmHg 80%
07:00 +17°C° 0 mm 0 mps 704 mmHg 73%
08:00 +19°C° 0 mm 0 mps 704 mmHg 65%
09:00 +22°C° 0 mm 1 mps 704 mmHg 59%
10:00 +24°C° 0 mm 1 mps 704 mmHg 54%
11:00 +25°C° 0 mm 2 mps 704 mmHg 48%
12:00 +26°C° 0 mm 2 mps 704 mmHg 47%
13:00 +26°C° 0 mm 2 mps 703 mmHg 46%
14:00 +27°C° 0 mm 2 mps 703 mmHg 45%
15:00 +27°C° 0 mm 2 mps 703 mmHg 47%
16:00 +27°C° 0 mm 2 mps 703 mmHg 49%
17:00 +27°C° 0 mm 2 mps 702 mmHg 51%
18:00 +25°C° 0 mm 2 mps 702 mmHg 57%
19:00 +23°C° 0 mm 2 mps 702 mmHg 64%
20:00 +20°C° 0 mm 2 mps 701 mmHg 71%
21:00 +20°C° 0 mm 1 mps 701 mmHg 73%
22:00 +19°C° 0 mm 1 mps 701 mmHg 75%
23:00 +18°C° 0 mm 1 mps 701 mmHg 77%

Tomorrow, 12 July, Sunday

Time Temperature Precipitation Wind Pressure Humidity
00:00 +16°C° 0 mm 1 mps 701 mmHg 78%
01:00 +16°C° 0 mm 1 mps 701 mmHg 79%
02:00 +16°C° 0 mm 1 mps 700 mmHg 80%
03:00 +16°C° 0 mm 1 mps 700 mmHg 81%
04:00 +16°C° 0 mm 1 mps 700 mmHg 81%
05:00 +15°C° 0 mm 1 mps 700 mmHg 82%
06:00 +18°C° 0 mm 1 mps 701 mmHg 76%
07:00 +20°C° 0 mm 1 mps 701 mmHg 70%
08:00 +21°C° 0 mm 2 mps 702 mmHg 64%
09:00 +23°C° 0 mm 2 mps 702 mmHg 60%
10:00 +25°C° 0 mm 2 mps 702 mmHg 56%
11:00 +26°C° 0 mm 2 mps 703 mmHg 53%
12:00 +27°C° 0 mm 3 mps 702 mmHg 52%
13:00 +27°C° 0 mm 3 mps 702 mmHg 51%
14:00 +27°C° 0 mm 3 mps 702 mmHg 50%
15:00 +27°C° 0 mm 3 mps 702 mmHg 52%
16:00 +26°C° 0 mm 4 mps 702 mmHg 55%
17:00 +26°C° 0 mm 4 mps 701 mmHg 58%
18:00 +23°C° 0 mm 4 mps 701 mmHg 64%
19:00 +21°C° 0 mm 3 mps 701 mmHg 70%
20:00 +19°C° 0 mm 3 mps 701 mmHg 75%
21:00 +18°C° 0 mm 3 mps 701 mmHg 77%
22:00 +17°C° 0 mm 3 mps 701 mmHg 78%
23:00 +16°C° 0 mm 2 mps 701 mmHg 80%

Day after tomorrow, 13 July, Monday

Time Temperature Precipitation Wind Pressure Humidity
00:00 +16°C° 0 mm 2 mps 701 mmHg 79%
01:00 +15°C° 0 mm 2 mps 701 mmHg 77%
02:00 +15°C° 0 mm 2 mps 701 mmHg 76%
03:00 +14°C° 0 mm 2 mps 701 mmHg 77%
04:00 +13°C° 0 mm 2 mps 701 mmHg 77%
05:00 +13°C° 0 mm 2 mps 701 mmHg 78%
06:00 +13°C° 0 mm 3 mps 701 mmHg 73%
07:00 +14°C° 0 mm 3 mps 702 mmHg 69%
08:00 +16°C° 0 mm 3 mps 702 mmHg 64%
09:00 +17°C° 0 mm 3 mps 702 mmHg 61%
10:00 +18°C° 0 mm 3 mps 703 mmHg 58%
11:00 +19°C° 0 mm 3 mps 703 mmHg 55%
12:00 +20°C° 0 mm 4 mps 703 mmHg 55%
13:00 +20°C° 0 mm 4 mps 703 mmHg 54%
14:00 +20°C° 0 mm 4 mps 703 mmHg 54%
15:00 +20°C° 0 mm 4 mps 703 mmHg 55%
16:00 +20°C° 0 mm 4 mps 702 mmHg 56%
17:00 +20°C° 0 mm 3 mps 702 mmHg 57%
18:00 +18°C° 0 mm 3 mps 702 mmHg 64%
19:00 +17°C° 0 mm 2 mps 702 mmHg 70%
20:00 +15°C° 0 mm 2 mps 702 mmHg 77%
21:00 +14°C° 0 mm 1 mps 702 mmHg 78%
22:00 +14°C° 0 mm 1 mps 702 mmHg 79%
23:00 +13°C° 0 mm 1 mps 702 mmHg 80%

14 July, Tuesday

Time Temperature Precipitation Wind Pressure Humidity
00:00 +13°C° 0 mm 1 mps 702 mmHg 78%
01:00 +13°C° 0 mm 1 mps 703 mmHg 77%
02:00 +12°C° 0 mm 0 mps 703 mmHg 76%
03:00 +12°C° 0 mm 0 mps 703 mmHg 76%
04:00 +12°C° 0 mm 0 mps 702 mmHg 75%
05:00 +12°C° 0 mm 0 mps 702 mmHg 75%
06:00 +14°C° 0 mm 0 mps 703 mmHg 70%
07:00 +15°C° 0 mm 0 mps 703 mmHg 65%
08:00 +17°C° 0 mm 0 mps 703 mmHg 60%
09:00 +20°C° 0 mm 1 mps 703 mmHg 56%
10:00 +21°C° 0 mm 1 mps 704 mmHg 52%
11:00 +23°C° 0 mm 1 mps 704 mmHg 48%
12:00 +23°C° 0 mm 1 mps 703 mmHg 47%
13:00 +23°C° 0 mm 1 mps 703 mmHg 45%
14:00 +24°C° 0 mm 1 mps 703 mmHg 44%
15:00 +24°C° 0 mm 1 mps 703 mmHg 45%
16:00 +24°C° 0 mm 2 mps 702 mmHg 46%
17:00 +23°C° 0 mm 2 mps 702 mmHg 47%
18:00 +21°C° 0 mm 2 mps 702 mmHg 53%
19:00 +19°C° 0 mm 2 mps 702 mmHg 60%
20:00 +18°C° 0 mm 1 mps 702 mmHg 66%
21:00 +16°C° 0 mm 1 mps 702 mmHg 68%
22:00 +15°C° 0 mm 2 mps 702 mmHg 70%
23:00 +14°C° 0 mm 2 mps 702 mmHg 71%

15 July, Wednesday

Time Temperature Precipitation Wind Pressure Humidity
00:00 +14°C° 0 mm 2 mps 702 mmHg 73%
01:00 +14°C° 0 mm 1 mps 702 mmHg 75%
02:00 +13°C° 0 mm 1 mps 702 mmHg 77%
03:00 +13°C° 0 mm 1 mps 702 mmHg 78%
04:00 +13°C° 0 mm 1 mps 702 mmHg 78%
05:00 +12°C° 0 mm 1 mps 702 mmHg 79%
06:00 +14°C° 0 mm 1 mps 702 mmHg 73%
07:00 +16°C° 0 mm 1 mps 702 mmHg 66%
08:00 +17°C° 0 mm 0 mps 703 mmHg 60%
09:00 +21°C° 0 mm 1 mps 703 mmHg 54%
10:00 +22°C° 0 mm 1 mps 703 mmHg 49%
11:00 +24°C° 0 mm 1 mps 703 mmHg 43%
12:00 +25°C° 0 mm 1 mps 703 mmHg 42%
13:00 +25°C° 0 mm 1 mps 703 mmHg 40%
14:00 +26°C° 0 mm 1 mps 703 mmHg 38%
15:00 +26°C° 0 mm 1 mps 702 mmHg 39%
16:00 +26°C° 0 mm 1 mps 702 mmHg 40%
17:00 +25°C° 0 mm 1 mps 701 mmHg 41%
18:00 +23°C° 0 mm 1 mps 701 mmHg 48%
19:00 +21°C° 0 mm 1 mps 701 mmHg 55%
20:00 +19°C° 0 mm 1 mps 701 mmHg 61%
21:00 +18°C° 0 mm 2 mps 701 mmHg 63%
22:00 +17°C° 0 mm 2 mps 701 mmHg 65%
23:00 +16°C° 0 mm 2 mps 701 mmHg 67%

16 July, Thursday

Time Temperature Precipitation Wind Pressure Humidity
00:00 +16°C° 0 mm 2 mps 701 mmHg 69%
01:00 +15°C° 0 mm 1 mps 701 mmHg 70%
02:00 +14°C° 0 mm 1 mps 701 mmHg 72%
03:00 +14°C° 0 mm 1 mps 701 mmHg 73%
04:00 +14°C° 0 mm 1 mps 700 mmHg 74%
05:00 +14°C° 0 mm 1 mps 700 mmHg 75%
06:00 +16°C° 0 mm 1 mps 700 mmHg 69%
07:00 +19°C° 0 mm 1 mps 701 mmHg 64%
08:00 +21°C° 0 mm 1 mps 701 mmHg 58%
09:00 +23°C° 0 mm 1 mps 701 mmHg 53%
10:00 +24°C° 0 mm 1 mps 702 mmHg 48%
11:00 +26°C° 0 mm 1 mps 702 mmHg 43%
12:00 +27°C° 0 mm 1 mps 702 mmHg 41%
13:00 +27°C° 0 mm 1 mps 701 mmHg 39%
14:00 +28°C° 0 mm 2 mps 701 mmHg 37%
15:00 +27°C° 0 mm 2 mps 701 mmHg 38%
16:00 +27°C° 0 mm 2 mps 700 mmHg 40%
17:00 +27°C° 0 mm 3 mps 700 mmHg 41%
18:00 +25°C° 0 mm 2 mps 700 mmHg 46%
19:00 +23°C° 0 mm 2 mps 700 mmHg 51%
20:00 +21°C° 0 mm 1 mps 699 mmHg 56%
21:00 +20°C° 0 mm 1 mps 700 mmHg 58%
22:00 +19°C° 0 mm 1 mps 700 mmHg 60%
23:00 +18°C° 0 mm 1 mps 700 mmHg 62%
Show more